STARLINK-2196, 47773

Orbit data source: Space-Track

STARLINK-2196, 47773 is a payload satellite owned by SpaceX/Seattle (US) in LEO that was launched on Thu, 04 Mar 2021 UTC via an FALCON 9 launch vehicle from the Air Force Eastern Test Range (AFETR). Payload-class satellites include a variety of spacecraft equipped with specific instruments for various scientific and technological missions. These include communications satellites like Starlink; space stations such as the ISS; scientific satellites like the Hubble; Earth observation satellites from companies like Planet Labs, Umbra, and HawkEye 360; GPS; miniature CubeSats for education and research; and military/defense satellites.

Loading next visibility...
Identifier
47773, 2021-017BD
Orbit
LEO
Country
Flag of USUS
Related business
Manufacturer
SpaceX/Seattle
Mission
Operational Commercial Communications
Bus & Motor
STARLINK, Unknown motor
Mass
260 kg wet, ~248 kg dry
Launch date (UTC)
2021-03-04 (5 years ago)
Launch vehicle
FALCON 9
Launch site
Air Force Eastern Test Range (AFETR)
Object type
Payload
Rocket body
Debris
Shape & HBR
Box + 1 Pan, 10.1 m
Radar Cross Section
13.562 m², Large (>1 m²)

Expand to show TLE details & history
Last TLE update: 1 day ago

TLE from 1 day ago
0 STARLINK-2196
1 47773U 21017BD  26235.08136214  .00050007  00000-0  12536-2 0  9993
2 47773  53.1603 161.7971 0001119 107.1335 252.9792 15.39579647303167
Epoch: 2026-08-23T01:57Z
TLE epoch observation values (Epoch: 2026-08-23T01:57:09.688Z)
Latitude
-0.00008°
Longitude
161.12414°
Altitude
448.478 km
Speed
7.644 km/s
True Right ascension
10h 47m 11s
True Declination
0° 00' 00"
Sunlit
Object was in daylight at epoch
Visualization orbit readout
Latitude
Unknown
Longitude
Unknown
Altitude
Unknown
Speed
Unknown
Apparent Right ascension
Unknown
Apparent Declination
Unknown
Sunlit
N/A
Visualization observer readout
Local Sidereal Time
04:19:39
Azimuth
Unknown
Elevation
Unknown
Doppler factor
Unknown
Orbital elements
Apogee altitude
448.373 km
Perigee altitude
446.845 km
Semi-major axis
6,825.746 km
Eccentricity
0.00011
Inclination
53.1603°
RAAN
161.7971°
Arg. of periapsis
107.1335°
True anomaly
252.96694°
Mean anomaly
252.9792°
Eccentric anomaly
252.97307°
Mean motion
3.84873 °/min
Orbital period
93.54 mins
BSTAR
0.0012536
Loading maneuver chart data...
Computing Atmospheric mass density...

Documentation

Showing up to 5 results
|